Regional Weather Roundup
Issued by NWS

Home | Current Version | Previous Version | Graphics & Text | Print | Product List | Glossary On
Versions: 1 2 3 4 5 6 7 8 9 10 11 12 13 14 15 16 17 18 19 20 21 22 23 24 25 26 27 28 29 30 31 32 33 34 35 36 37 38 39 40 41 42 43 44 45 46 47 48 49 50
000
ASUS43 KMKX 261911
RWRWI

WISCONSIN REGIONAL WEATHER ROUNDUP
NATIONAL WEATHER SERVICE MILWAUKEE/SULLIVAN WI
200 PM CDT MON SEP 26 2016

NOTE: "FAIR" INDICATES FEW OR NO CLOUDS BELOW 12,000 FEET WITH NO
SIGNIFICANT WEATHER AND/OR OBSTRUCTIONS TO VISIBILITY.

WIZ001-002-006>008-014>016-023>028-262000-
NORTHWEST WISCONSIN

CITY           SKY/WX    TMP DP  RH WIND       PRES   REMARKS
SUPERIOR ARPT  CLOUDY    54  45  70 W16       29.75S
ASHLAND        LGT RAIN  51  48  89 W15G25    29.71S
HAYWARD        LGT RAIN  51  45  79 W9        29.78R
SIREN          CLOUDY    58  37  44 NW24G38   29.83S
CUMBERLAND     CLOUDY    57  37  47 W28G33    29.82F
RICE LAKE      CLOUDY    58  38  48 W16G33    29.84F
CHETEK         NOT AVBL
LADYSMITH      CLOUDY    57  42  57 W17G25    29.81S
EAU CLAIRE     MOSUNNY   61  38  42 W18G35    29.84F
MENOMONIE      PTSUNNY   61  39  44 W23G33    29.87S
NEW RICHMOND   PTSUNNY   59  37  43 W23G31    29.88S
OSCEOLA        CLOUDY    61  39  43 W20G28    29.90F
$$

WIZ003>005-009-010-017-018-262000-
NORTH CENTRAL WISCONSIN

CITY           SKY/WX    TMP DP  RH WIND       PRES   REMARKS
MANITOWISH WTR NOT AVBL
ARBOR VITAE    DRIZZLE   52  47  84 W8G16     29.72S
WOODRUFF       DRIZZLE   52  47  84 W8G16     29.72S
RHINELANDER    CLOUDY    55  41  59 W23G35    29.73S
EAGLE RIVER    CLOUDY    51  42  70 W13G23    29.70S
LAND O LAKES   LGT RAIN  49  47  91 W9        29.70S
PHILLIPS       CLOUDY    53  41  63 W10G20    29.75S
TOMAHAWK       CLOUDY    55  38  54 W12G28    29.75F
MEDFORD        PTSUNNY   57  39  51 W23G32    29.79S
MERRILL        CLOUDY    57  40  52 W21G30    29.76S
$$

WIZ029-030-035-036-043>047-262000-
CENTRAL WISCONSIN

CITY           SKY/WX    TMP DP  RH WIND       PRES   REMARKS
WAUSAU         CLOUDY    61  39  44 W25G41    29.76F
MOSINEE        PTSUNNY   57  39  51 W21G31    29.80S
MARSHFIELD     CLOUDY    59  38  45 W20G35    29.81S
STEVENS POINT  CLOUDY    58  37  45 W18G29    29.81F
WAUPACA        PTSUNNY   64  36  35 W15G32    29.81S
WAUTOMA        CLOUDY    62  39  42 W21G31    29.84S
WISC RAPIDS    CLOUDY    60  40  47 W14G25    29.83F
CAMP DOUGLAS   PTSUNNY   63  39  42 W24G31    29.85F
$$

WIZ011>013-019>022-031-037>040-048>050-262000-
NORTHEAST WISCONSIN

CITY           SKY/WX    TMP DP  RH WIND       PRES   REMARKS
ANTIGO         CLOUDY    55  42  63 W18G24    29.75F
SHAWANO        CLOUDY    62  40  45 W15G28    29.77S
OCONTO         NOT AVBL
STURGEON BAY   CLOUDY    60  43  53 W23       29.74F
GREEN BAY      PTSUNNY   63  42  46 W22G30    29.77F
MANITOWOC      CLOUDY    64  37  36 W20G28    29.79F
APPLETON       PTSUNNY   63  34  34 W24G35    29.79F
CLINTONVILLE   NOT AVBL
OSHKOSH        PTSUNNY   62  37  39 W21G35    29.81F
$$

WIZ032>034-041-042-053>061-262000-
SOUTHWEST WISCONSIN

CITY           SKY/WX    TMP DP  RH WIND       PRES   REMARKS
LA CROSSE      PTSUNNY   68  37  32 W23G32    29.88F
SPARTA         PTSUNNY   63  35  35 W20G31    29.88S
VIROQUA        SUNNY     64  31  28 W20G33    29.91F
BOSCOBEL       SUNNY     68  33  27 W20G31    29.93F
PRAIRIE DU CHI SUNNY     68  29  23 W25G32    29.94F
PLATTEVILLE    SUNNY     66  36  32 W25G38    29.97F
$$

WIZ056-057-062-063-064-067-068-262000-
SOUTH CENTRAL WISCONSIN

CITY           SKY/WX    TMP DP  RH WIND       PRES   REMARKS
REEDSBURG      NOT AVBL
BARABOO/DELLS  MOSUNNY   65  34  31 W20G28    29.87F
LONE ROCK      SUNNY     66  36  32 W24G30    29.91F
MINERAL POINT  SUNNY     66  34  30 W18G30    29.94F
MADISON        PTSUNNY   64  38  38 W12G26    29.89F
MIDDLETON      NOT AVBL
WATERTOWN      PTSUNNY   65  41  41 W24G32    29.89F
MONROE         SUNNY     64  34  32 W29G37    29.94F
JANESVILLE     MOSUNNY   66  37  34 W20G32    29.92F
$$

WIZ051-052-058>065-066-070>072-262000-
SOUTHEAST WISCONSIN

CITY           SKY/WX    TMP DP  RH WIND       PRES   REMARKS
MILWAUKEE      MOSUNNY   67  37  33 W20G32    29.89F
WAUKESHA       PTSUNNY   63  39  42 W16G31    29.90F
MILWAUKEE/TIMM MOSUNNY   64  34  32 W22G29    29.88F
RACINE         SUNNY     66  37  34 W20G30    29.90F
BURLINGTON     MOSUNNY   63  36  37 W16G30    29.91F
KENOSHA        SUNNY     67  40  37 W20G31    29.90F
FOND DU LAC    PTSUNNY   63  38  39 W20G35    29.84F
SHEBOYGAN      PTSUNNY   64  38  38 W20G30    29.83F
WEST BEND      PTSUNNY   63  36  36 W21G33    29.86F
JUNEAU         PTSUNNY   62  38  41 W20G30    29.88F
$$

LSZ147-162-262000-
LAKE SUPERIOR

STATION/POSITION TIME  TEMP    WIND        PRES    WAVE
                       AIR SEA DIR/SP/G            HT/PER
                 (UTC) (F)     (DEG/KT/KT) (MB)    (FT/S)
W MID LAKE BUOY  1850   52 50  250/ 27/ 33 1000.4R   7/ 7
DEVILS ISLAND    1800   53     260/ 28/ 35 1003.7R
SAXON HARBOR     1840   53     240/  9/ 16 1005.4S
$$

LMZ867-665-643>646-262000-
LAKE MICHIGAN

STATION/POSITION TIME  TEMP    WIND        PRES    WAVE
                       AIR SEA DIR/SP/G            HT/PER
                 (UTC) (F)     (DEG/KT/KT) (MB)    (FT/S)
CHAMBERS ISLAND  1800   58     220/ 12/ 20 1006.1F
N MID LAKE BUOY  1850   59 67  240/ 25/ 29 1004.5F   6/ 7
NORTHPORT PIER   1800   58     260/  8/ 19 1006.1F
KEWAUNEE LAKESHO 1800   63     270/ 15/ 23 1007.7F
SHEBOYGAN LAKESH 1900   63     280/ 26/ 32 1009.5F
PORT WASHINGTON  1800   65     260/ 12     1011.9S
ATWATER BUOY     1900   63 54  250/ 17/ 23 1011.5F
MILWAUKEE LAKESH 1810   63     280/ 16/ 22   N/A
S MID LAKE BUOY  1850   64 71  240/ 23/ 29 1011.4F   4/ 5
KENOSHA   LAKESH 1900   65     260/ 21/ 30 1012.5F
$$

TC  - TEMPERATURE IN CELSIUS
VSB - VISIBILITY IN STATUTE MILES
WCI - WIND CHILL INDEX
HX  - HEAT INDEX





USA.gov is the U.S. government's official web portal to all federal, state and local government web resources and services.